User: anonymous   Login
Location: Unspecified
(0.0000°N, 0.0000°E)
Time: 20:11:24
(UTC+00:00)
Language:

OPTUS D1 - Orbit

View from above orbital plane
View from above orbital plane
View from above satellite
View from above satellite

Ground track
Ground track

The orbit data is extracted from the following two-line orbital elements,

1 29495U 06043B   15027.50603782 -.00000127  00000-0  10000-3 0  7036
2 29495 000.0228 316.2162 0002874 337.3331 175.0582 01.00271340 30445
Epoch (UTC): 27 January 2015 12:08:41
Eccentricity: 0.0002874
inclination: 0.0228°
perigee height: 35774 km
apogee height: 35798 km
right ascension of ascending node: 316.2162°
argument of perigee: 337.3331°
revolutions per day: 1.00271340
mean anomaly at epoch: 175.0582°
orbit number at epoch: 3044

The dashed part of the orbit path shows where the satellite is in the earth's shadow,  

DLR